This is the latest recevied weather packets stored in our database for station/object K1LVA. If no packets are shown the sender has not sent any weather packets the latest 10 day(s).
| Time | Temp. | Humidity | Pressure | Rain* | Wind** | Luminosity | Snow |
|---|---|---|---|---|---|---|---|
| 1777516068 | 20.56° C | 90% | 1010 hPa | 0 mm | - | 0 W/m² | - |
| 1777515765 | 20.56° C | 90% | 1010.1 hPa | 0 mm | - | 0 W/m² | - |
| 1777515462 | 21.11° C | 90% | 1010 hPa | 0 mm | - | 0 W/m² | - |
| 1777515159 | 21.11° C | 90% | 1010 hPa | 0 mm | - | 0 W/m² | - |
| 1777514855 | 21.11° C | 90% | 1010 hPa | 0 mm | - | 0 W/m² | - |
| 1777514552 | 20.56° C | 90% | 1009.9 hPa | 0 mm | - | 0 W/m² | - |
| 1777514250 | 20.56° C | 89% | 1009.7 hPa | 0 mm | - | 0 W/m² | - |
| 1777513945 | 21.11° C | 89% | 1009.8 hPa | 0 mm | - | 0 W/m² | - |
| 1777513643 | 21.11° C | 89% | 1009.6 hPa | 0 mm | - | 0 W/m² | - |
| 1777513340 | 21.11° C | 89% | 1009.7 hPa | 0 mm | - | 0 W/m² | - |
| 1777513036 | 21.11° C | 89% | 1010 hPa | 0 mm | - | 0 W/m² | - |
| 1777512429 | 21.11° C | 89% | 1009.9 hPa | 0 mm | - | 0 W/m² | - |
| 1777512126 | 21.11° C | 88% | 1009.8 hPa | 0 mm | - | 0 W/m² | - |
| 1777511824 | 21.11° C | 88% | 1009.9 hPa | 0 mm | - | 0 W/m² | - |
| 1777511520 | 21.11° C | 88% | 1009.5 hPa | 0 mm | - | 0 W/m² | - |
| 1777510610 | 21.11° C | 87% | 1009.7 hPa | 0 mm | - | 0 W/m² | - |
| 1777509093 | 21.67° C | 85% | 1009.3 hPa | 0 mm | - | 0 W/m² | - |
| 1777508790 | 22.22° C | 84% | 1009.3 hPa | 0 mm | - | 0 W/m² | - |
| 1777508184 | 22.78° C | 82% | 1009.1 hPa | 0 mm | - | 0 W/m² | - |
| 1777507578 | 22.78° C | 80% | 1009 hPa | 0 mm | - | 0 W/m² | - |
| 1777506967 | 23.33° C | 79% | 1009.2 hPa | 0 mm | - | 6 W/m² | - |
| 1777506664 | 23.89° C | 78% | 1009 hPa | 0 mm | - | 10 W/m² | - |
| 1777505751 | 24.44° C | 75% | 1009.2 hPa | 0 mm | - | 17 W/m² | - |
| 1777502415 | 26.67° C | 67% | 1009.2 hPa | 0 mm | - | 35 W/m² | - |
| 1777502112 | 27.22° C | 66% | 1009.1 hPa | 0 mm | - | 83 W/m² | - |
* Rain latest hour (hover to see other rain measurements)
** Current wind speed in m/s (hover to see current wind gust speed)